Location: Austin
(30.3000°N, 97.7500°W)
Time: 10:24:19
(UTC-05:00)

USA 281 - Pass Details

Date: 26 May 2023
Orbit: 1077 x 1081 km, 106.0° (Epoch: 20 May)

Event Time Altitude Azimuth Distance (km) Brightness Sun altitude
Rises 22:27:35 0° 20° (NNE) 3,880 6.5 -22.6°
Reaches altitude 10° 22:30:06 10° 19° (NNE) 2,922 5.8 -23.0°
Maximum altitude 22:36:41 83° 293° (WNW) 1,091 3.2 -24.0°
Enters shadow 22:43:08 11° 206° (SSW) 2,873 5.2 -25.0°
